,,,PA_Meas_PMT16A,,PR_Meas_QMR101_102,,RH_Meas_QMH101,,SR_Meas_QMS101,,TA_Meas_QMH101,,GenWind,,GenWind,
date,time,status,PA,status,PR,status,RH,status,SR,status,TA,status,DirAvg,status,SpdAvg,
2009-05-29, 00:00:04,VALID,999.558,VALID,0,VALID,92.1734,VALID,0,VALID,24.4837,VALID,104,VALID,0.564453,
2009-05-29, 00:01:04,VALID,999.596,VALID,0,VALID,92.0743,VALID,0,VALID,24.4623,VALID,104,VALID,0.283984,
2009-05-29, 00:02:04,VALID,999.586,VALID,0,VALID,92.0514,VALID,0,VALID,24.4642,VALID,104,VALID,0.0964844,
2009-05-29, 00:03:04,VALID,999.592,VALID,0,VALID,92.059,VALID,0,VALID,24.4446,VALID,104,VALID,0.00429688,
2009-05-29, 00:04:04,VALID,999.6,VALID,0,VALID,92.1506,VALID,0,VALID,24.4446,VALID,104,VALID,0,
2009-05-29, 00:05:04,VALID,999.575,VALID,0,VALID,92.2421,VALID,0,VALID,24.4251,VALID,104,VALID,0,
2009-05-29, 00:06:04,VALID,999.538,VALID,0,VALID,92.3108,VALID,0,VALID,24.4251,VALID,104,VALID,0,
2009-05-29, 00:07:04,VALID,999.533,VALID,0,VALID,92.41,VALID,0,VALID,24.4251,VALID,104,VALID,0,
2009-05-29, 00:08:04,VALID,999.516,VALID,0,VALID,92.4481,VALID,0,VALID,24.4251,VALID,104,VALID,0,
2009-05-29, 00:09:04,VALID,999.549,VALID,0,VALID,92.4023,VALID,0,VALID,24.3824,VALID,104,VALID,0,
2009-05-29, 00:10:04,VALID,999.551,VALID,0,VALID,92.41,VALID,0,VALID,24.3842,VALID,104,VALID,0,
2009-05-29, 00:11:04,VALID,999.591,VALID,0,VALID,92.5091,VALID,0,VALID,24.3647,VALID,104,VALID,0,
2009-05-29, 00:12:04,VALID,999.595,VALID,0,VALID,92.6083,VALID,0,VALID,24.3238,VALID,104,VALID,0,
2009-05-29, 00:13:04,VALID,999.638,VALID,0,VALID,92.6617,VALID,0,VALID,24.3238,VALID,104,VALID,0,
2009-05-29, 00:14:04,VALID,999.622,VALID,0,VALID,92.7838,VALID,0,VALID,24.3043,VALID,104,VALID,0,
2009-05-29, 00:15:04,VALID,999.611,VALID,0,VALID,92.8448,VALID,0,VALID,24.3043,VALID,104,VALID,0,
2009-05-29, 00:16:04,VALID,999.615,VALID,0,VALID,92.883,VALID,0,VALID,24.3257,VALID,104,VALID,0.0675781,
2009-05-29, 00:17:04,VALID,999.604,VALID,0,VALID,92.9745,VALID,0.112286,VALID,24.3238,VALID,105,VALID,0.416797,
2009-05-29, 00:18:04,VALID,999.603,VALID,0,VALID,92.8677,VALID,0,VALID,24.3452,VALID,160,VALID,0.678516,
2009-05-29, 00:19:04,VALID,999.566,VALID,0,VALID,92.6465,VALID,0,VALID,24.3842,VALID,155,VALID,0.757422,
2009-05-29, 00:20:04,VALID,999.565,VALID,0,VALID,92.3871,VALID,0,VALID,24.3824,VALID,148,VALID,0.676172,
2009-05-29, 00:21:04,VALID,999.522,VALID,0,VALID,92.0971,VALID,0,VALID,24.4214,VALID,148,VALID,0.483594,
2009-05-29, 00:22:04,VALID,999.533,VALID,0,VALID,91.8606,VALID,0,VALID,24.48,VALID,148,VALID,0.448438,
2009-05-29, 00:23:04,VALID,999.534,VALID,0,VALID,91.7157,VALID,0,VALID,24.5209,VALID,148,VALID,0.418359,
2009-05-29, 00:24:04,VALID,999.487,VALID,0,VALID,91.1663,VALID,0,VALID,24.5404,VALID,173,VALID,0.483984,
2009-05-29, 00:25:04,VALID,999.514,VALID,0,VALID,90.8077,VALID,0,VALID,24.5599,VALID,173,VALID,0.366406,
2009-05-29, 00:26:04,VALID,999.491,VALID,0,VALID,90.6323,VALID,0,VALID,24.5775,VALID,173,VALID,0.338281,
2009-05-29, 00:27:04,VALID,999.516,VALID,0,VALID,90.5102,VALID,0,VALID,24.6184,VALID,195,VALID,0.423828,
2009-05-29, 00:28:04,VALID,999.508,VALID,0,VALID,90.4263,VALID,0,VALID,24.6575,VALID,204,VALID,0.748438,
2009-05-29, 00:29:04,VALID,999.49,VALID,0,VALID,89.9151,VALID,0,VALID,24.6965,VALID,237,VALID,0.794922,
2009-05-29, 00:30:04,VALID,999.46,VALID,0,VALID,89.6404,VALID,0,VALID,24.7746,VALID,239,VALID,0.733203,
2009-05-29, 00:31:04,VALID,999.486,VALID,0,VALID,89.8464,VALID,0,VALID,24.7532,VALID,241,VALID,0.424219,
2009-05-29, 00:32:04,VALID,999.445,VALID,0,VALID,90.1897,VALID,0,VALID,24.716,VALID,312,VALID,0.583594,
2009-05-29, 00:33:04,VALID,999.446,VALID,0,VALID,90.4568,VALID,0,VALID,24.6556,VALID,318,VALID,0.583203,
2009-05-29, 00:34:04,VALID,999.445,VALID,0,VALID,90.205,VALID,0,VALID,24.6184,VALID,336,VALID,0.874219,
2009-05-29, 00:35:04,VALID,999.411,VALID,0,VALID,90.3576,VALID,0,VALID,24.4604,VALID,339,VALID,0.961719,
2009-05-29, 00:36:04,VALID,999.455,VALID,0,VALID,90.7925,VALID,0,VALID,24.3647,VALID,343,VALID,1.01641,
2009-05-29, 00:37:04,VALID,999.409,VALID,0,VALID,91.586,VALID,0,VALID,24.2263,VALID,351,VALID,0.975781,
2009-05-29, 00:38:04,VALID,999.386,VALID,0,VALID,92.3947,VALID,0,VALID,24.2086,VALID,351,VALID,0.816406,
2009-05-29, 00:39:04,VALID,999.406,VALID,0,VALID,92.6846,VALID,0,VALID,24.1482,VALID,351,VALID,0.707812,
2009-05-29, 00:40:04,VALID,999.421,VALID,0,VALID,92.7151,VALID,0,VALID,24.1305,VALID,351,VALID,0.66875,
2009-05-29, 00:41:04,VALID,999.408,VALID,0,VALID,92.616,VALID,0,VALID,24.0525,VALID,351,VALID,0.536328,
2009-05-29, 00:42:04,VALID,999.422,VALID,0,VALID,92.7304,VALID,0,VALID,23.9921,VALID,351,VALID,0.461328,
2009-05-29, 00:43:04,VALID,999.416,VALID,0,VALID,92.9745,VALID,0,VALID,23.9549,VALID,351,VALID,0.473047,
2009-05-29, 00:44:04,VALID,999.395,VALID,0,VALID,93.4857,VALID,0,VALID,23.9744,VALID,351,VALID,0.500391,
2009-05-29, 00:45:04,VALID,999.408,VALID,0,VALID,93.5086,VALID,0,VALID,23.9531,VALID,351,VALID,0.659375,
2009-05-29, 00:46:04,VALID,999.428,VALID,0,VALID,93.2111,VALID,0.112286,VALID,23.9336,VALID,351,VALID,0.525,
2009-05-29, 00:47:04,VALID,999.449,VALID,0,VALID,92.9517,VALID,0,VALID,23.8945,VALID,37,VALID,0.722266,
2009-05-29, 00:48:04,VALID,999.431,VALID,0,VALID,92.9364,VALID,0,VALID,23.8768,VALID,59,VALID,0.788672,
2009-05-29, 00:49:04,VALID,999.438,VALID,0,VALID,93.1348,VALID,0,VALID,23.8963,VALID,72,VALID,0.911328,
2009-05-29, 00:50:04,VALID,999.421,VALID,0,VALID,93.2416,VALID,0,VALID,23.9354,VALID,72,VALID,0.750781,
2009-05-29, 00:51:04,VALID,999.419,VALID,0,VALID,93.1119,VALID,0,VALID,23.9744,VALID,72,VALID,0.581641,
2009-05-29, 00:52:04,VALID,999.376,VALID,0,VALID,92.9135,VALID,0,VALID,23.9744,VALID,72,VALID,0.535547,
2009-05-29, 00:53:04,VALID,999.367,VALID,0,VALID,93.0585,VALID,0,VALID,23.9939,VALID,72,VALID,0.629297,
2009-05-29, 00:54:04,VALID,999.362,VALID,0,VALID,93.1271,VALID,0,VALID,24.0329,VALID,72,VALID,0.503906,
2009-05-29, 00:55:04,VALID,999.355,VALID,0,VALID,93.0051,VALID,0,VALID,24.0525,VALID,72,VALID,0.523047,
2009-05-29, 00:56:04,VALID,999.345,VALID,0,VALID,92.8296,VALID,0,VALID,24.0525,VALID,72,VALID,0.416797,
2009-05-29, 00:57:04,VALID,999.309,VALID,0,VALID,92.7075,VALID,0.112286,VALID,24.0311,VALID,72,VALID,0.423438,
2009-05-29, 00:58:04,VALID,999.282,VALID,0,VALID,92.5931,VALID,0,VALID,24.0134,VALID,72,VALID,0.530078,
2009-05-29, 00:59:04,VALID,999.284,VALID,0,VALID,92.883,VALID,0,VALID,24.0525,VALID,72,VALID,0.625,
2009-05-29, 01:00:04,VALID,999.298,VALID,0,VALID,92.8372,VALID,0,VALID,24.0329,VALID,79,VALID,0.667188,
2009-05-29, 01:01:04,VALID,999.296,VALID,0,VALID,92.7914,VALID,0,VALID,24.0329,VALID,83,VALID,0.619531,
2009-05-29, 01:02:04,VALID,999.313,VALID,0,VALID,92.9669,VALID,0,VALID,23.9921,VALID,102,VALID,0.743359,
2009-05-29, 01:03:04,VALID,999.248,VALID,0,VALID,93.2263,VALID,0,VALID,24.0525,VALID,119,VALID,0.819141,
2009-05-29, 01:04:04,VALID,999.294,VALID,0,VALID,93.295,VALID,0,VALID,24.0701,VALID,119,VALID,0.871875,
2009-05-29, 01:05:04,VALID,999.294,VALID,0,VALID,93.234,VALID,0,VALID,24.0915,VALID,124,VALID,0.797656,
2009-05-29, 01:06:04,VALID,999.288,VALID,0,VALID,93.234,VALID,0.112286,VALID,24.1092,VALID,129,VALID,0.840234,
2009-05-29, 01:07:04,VALID,999.303,VALID,0,VALID,93.0508,VALID,0,VALID,24.1305,VALID,140,VALID,0.803125,
2009-05-29, 01:08:04,VALID,999.321,VALID,0,VALID,92.8983,VALID,0,VALID,24.1092,VALID,144,VALID,0.767187,
2009-05-29, 01:09:04,VALID,999.285,VALID,0,VALID,92.7685,VALID,0,VALID,24.1324,VALID,143,VALID,0.673828,
2009-05-29, 01:10:04,VALID,999.266,VALID,0,VALID,92.7914,VALID,0,VALID,24.111,VALID,137,VALID,0.712891,
2009-05-29, 01:11:04,VALID,999.275,VALID,0,VALID,92.6388,VALID,0,VALID,24.1305,VALID,126,VALID,0.682813,
2009-05-29, 01:12:04,VALID,999.266,VALID,0,VALID,92.4481,VALID,0,VALID,24.111,VALID,124,VALID,0.725,
2009-05-29, 01:13:04,VALID,999.266,VALID,0,VALID,92.4481,VALID,0,VALID,24.111,VALID,111,VALID,0.751562,
2009-05-29, 01:14:04,VALID,999.267,VALID,0,VALID,92.41,VALID,0,VALID,24.1324,VALID,103,VALID,0.657422,
2009-05-29, 01:15:04,VALID,999.272,VALID,0,VALID,92.4557,VALID,0,VALID,24.111,VALID,81,VALID,0.635156,
2009-05-29, 01:16:04,VALID,999.276,VALID,0,VALID,92.1048,VALID,0,VALID,24.0933,VALID,62,VALID,0.639063,
2009-05-29, 01:17:04,VALID,999.262,VALID,0,VALID,91.7462,VALID,0,VALID,24.0134,VALID,62,VALID,0.562109,
2009-05-29, 01:18:04,VALID,999.232,VALID,0,VALID,92.059,VALID,0,VALID,23.9744,VALID,62,VALID,0.571875,
2009-05-29, 01:19:04,VALID,999.209,VALID,0,VALID,92.326,VALID,0,VALID,23.9354,VALID,62,VALID,0.483984,
2009-05-29, 01:20:04,VALID,999.176,VALID,0,VALID,92.5626,VALID,0,VALID,23.9177,VALID,62,VALID,0.421094,
2009-05-29, 01:21:04,VALID,999.149,VALID,0,VALID,92.5244,VALID,0,VALID,23.8786,VALID,62,VALID,0.296875,
2009-05-29, 01:22:04,VALID,999.132,VALID,0,VALID,92.8525,VALID,0,VALID,23.8591,VALID,62,VALID,0.299219,
2009-05-29, 01:23:04,VALID,999.135,VALID,0,VALID,92.9211,VALID,0,VALID,23.8183,VALID,62,VALID,0.196875,
2009-05-29, 01:24:04,VALID,999.09,VALID,0,VALID,93.089,VALID,0,VALID,23.8378,VALID,62,VALID,0.130078,
2009-05-29, 01:25:04,VALID,999.073,VALID,0,VALID,93.1119,VALID,0,VALID,23.7988,VALID,62,VALID,0.128906,
2009-05-29, 01:26:04,VALID,999.052,VALID,0,VALID,93.2187,VALID,0,VALID,23.7775,VALID,62,VALID,0,
2009-05-29, 01:27:04,VALID,999.05,VALID,0,VALID,93.295,VALID,0,VALID,23.7988,VALID,62,VALID,0,
2009-05-29, 01:28:04,VALID,999.011,VALID,0,VALID,93.3103,VALID,0,VALID,23.7988,VALID,62,VALID,0,
2009-05-29, 01:29:04,VALID,998.998,VALID,0,VALID,93.3866,VALID,0,VALID,23.7597,VALID,62,VALID,0.198828,
2009-05-29, 01:30:04,VALID,998.999,VALID,0,VALID,93.6078,VALID,0.112286,VALID,23.7579,VALID,66,VALID,0.492578,
2009-05-29, 01:31:04,VALID,998.998,VALID,0,VALID,93.7528,VALID,0,VALID,23.7988,VALID,109,VALID,0.625391,
2009-05-29, 01:32:04,VALID,998.991,VALID,0,VALID,93.562,VALID,0,VALID,23.7793,VALID,109,VALID,0.759375,
2009-05-29, 01:33:04,VALID,998.977,VALID,0,VALID,93.6231,VALID,0,VALID,23.7793,VALID,109,VALID,0.54375,
2009-05-29, 01:34:04,VALID,998.993,VALID,0,VALID,93.6307,VALID,0,VALID,23.797,VALID,109,VALID,0.423047,
2009-05-29, 01:35:04,VALID,998.993,VALID,0,VALID,93.4018,VALID,0,VALID,23.7793,VALID,109,VALID,0.475,
2009-05-29, 01:36:04,VALID,999.008,VALID,0,VALID,93.2797,VALID,0,VALID,23.7384,VALID,109,VALID,0.446094,
2009-05-29, 01:37:04,VALID,999.018,VALID,0,VALID,93.1805,VALID,0,VALID,23.7189,VALID,109,VALID,0.327734,
2009-05-29, 01:38:04,VALID,998.97,VALID,0,VALID,93.1958,VALID,0.112286,VALID,23.6799,VALID,109,VALID,0.164063,
2009-05-29, 01:39:04,VALID,998.956,VALID,0,VALID,93.234,VALID,0,VALID,23.664,VALID,109,VALID,0.151953,
2009-05-29, 01:40:04,VALID,998.953,VALID,0,VALID,93.2263,VALID,0,VALID,23.6036,VALID,109,VALID,0.164063,
2009-05-29, 01:41:04,VALID,998.94,VALID,0,VALID,93.295,VALID,0,VALID,23.6054,VALID,109,VALID,0.305078,
2009-05-29, 01:42:04,VALID,998.933,VALID,0,VALID,93.6765,VALID,0,VALID,23.6036,VALID,109,VALID,0.433594,
2009-05-29, 01:43:04,VALID,998.917,VALID,0,VALID,93.768,VALID,0,VALID,23.6445,VALID,109,VALID,0.371094,
2009-05-29, 01:44:04,VALID,998.907,VALID,0,VALID,93.9359,VALID,0,VALID,23.6445,VALID,109,VALID,0,
2009-05-29, 01:45:04,VALID,998.891,VALID,0,VALID,94.0503,VALID,0,VALID,23.6835,VALID,109,VALID,0,
2009-05-29, 01:46:04,VALID,998.872,VALID,0,VALID,93.852,VALID,0,VALID,23.664,VALID,109,VALID,0,
2009-05-29, 01:47:04,VALID,998.836,VALID,0,VALID,93.8138,VALID,0,VALID,23.6036,VALID,109,VALID,0,
2009-05-29, 01:48:04,VALID,998.817,VALID,0,VALID,93.9283,VALID,0,VALID,23.6036,VALID,109,VALID,0,
2009-05-29, 01:49:04,VALID,998.847,VALID,0,VALID,93.974,VALID,0,VALID,23.5841,VALID,109,VALID,0,
2009-05-29, 01:50:04,VALID,998.818,VALID,0,VALID,93.9969,VALID,0,VALID,23.5841,VALID,120,VALID,0,
2009-05-29, 01:51:04,VALID,998.834,VALID,0,VALID,94.3326,VALID,0,VALID,23.6622,VALID,132,VALID,0.0339844,
2009-05-29, 01:52:04,VALID,998.846,VALID,0,VALID,94.4318,VALID,0,VALID,23.7402,VALID,132,VALID,0.705469,
2009-05-29, 01:53:04,VALID,998.839,VALID,0,VALID,94.3784,VALID,0,VALID,23.8006,VALID,132,VALID,0.554297,
2009-05-29, 01:54:04,VALID,998.821,VALID,0,VALID,94.3174,VALID,0,VALID,23.7793,VALID,132,VALID,0.573438,
2009-05-29, 01:55:04,VALID,998.832,VALID,0,VALID,94.2411,VALID,0,VALID,23.7988,VALID,152,VALID,0.691797,
2009-05-29, 01:56:04,VALID,998.82,VALID,0,VALID,94.1953,VALID,0,VALID,23.8396,VALID,153,VALID,0.816016,
2009-05-29, 01:57:04,VALID,998.828,VALID,0,VALID,94.0122,VALID,0,VALID,23.8396,VALID,145,VALID,1.1293,
2009-05-29, 01:58:04,VALID,998.811,VALID,0,VALID,93.6917,VALID,0,VALID,23.8201,VALID,146,VALID,1.18906,
2009-05-29, 01:59:04,VALID,998.809,VALID,0,VALID,93.2721,VALID,0,VALID,23.8396,VALID,148,VALID,1.15937,
2009-05-29, 02:00:04,VALID,998.811,VALID,0,VALID,92.9364,VALID,0,VALID,23.8591,VALID,145,VALID,0.998828,
2009-05-29, 02:01:04,VALID,998.816,VALID,0,VALID,92.6694,VALID,0,VALID,23.8573,VALID,150,VALID,0.986328,
2009-05-29, 02:02:04,VALID,998.819,VALID,0,VALID,92.4176,VALID,0,VALID,23.8786,VALID,140,VALID,1.05938,
2009-05-29, 02:03:04,VALID,998.801,VALID,0,VALID,92.204,VALID,0,VALID,23.8768,VALID,126,VALID,0.841797,
2009-05-29, 02:04:04,VALID,998.8,VALID,0,VALID,92.0666,VALID,0,VALID,23.8982,VALID,122,VALID,0.710156,
2009-05-29, 02:05:04,VALID,998.799,VALID,0,VALID,91.8148,VALID,0,VALID,23.8768,VALID,122,VALID,0.741797,
2009-05-29, 02:06:04,VALID,998.783,VALID,0,VALID,91.792,VALID,0,VALID,23.8786,VALID,121,VALID,0.524219,
2009-05-29, 02:07:04,VALID,998.813,VALID,0,VALID,91.9827,VALID,0,VALID,23.8786,VALID,121,VALID,0.454688,
2009-05-29, 02:08:04,VALID,998.809,VALID,0,VALID,91.9903,VALID,0,VALID,23.8591,VALID,108,VALID,0.678516,
2009-05-29, 02:09:04,VALID,998.774,VALID,0,VALID,91.9598,VALID,0,VALID,23.8183,VALID,96,VALID,0.873438,
2009-05-29, 02:10:04,VALID,998.806,VALID,0,VALID,92.0361,VALID,0,VALID,23.8201,VALID,96,VALID,0.710547,
2009-05-29, 02:11:04,VALID,998.788,VALID,0,VALID,92.1124,VALID,0,VALID,23.7597,VALID,96,VALID,0.420312,
2009-05-29, 02:12:04,VALID,998.766,VALID,0,VALID,92.204,VALID,0,VALID,23.7402,VALID,96,VALID,0.341797,
2009-05-29, 02:13:04,VALID,998.747,VALID,0,VALID,92.4023,VALID,0,VALID,23.7207,VALID,96,VALID,0.158984,
2009-05-29, 02:14:04,VALID,998.733,VALID,0,VALID,92.4023,VALID,0,VALID,23.7225,VALID,96,VALID,0.187891,
2009-05-29, 02:15:04,VALID,998.702,VALID,0,VALID,92.5015,VALID,0,VALID,23.6817,VALID,96,VALID,0.0921875,
2009-05-29, 02:16:04,VALID,998.701,VALID,0,VALID,92.4939,VALID,0,VALID,23.664,VALID,96,VALID,0.187109,
2009-05-29, 02:17:04,VALID,998.671,VALID,0,VALID,92.4939,VALID,0,VALID,23.6232,VALID,96,VALID,0.0949219,
2009-05-29, 02:18:04,VALID,998.652,VALID,0,VALID,92.4863,VALID,0,VALID,23.6036,VALID,96,VALID,0,
2009-05-29, 02:19:04,VALID,998.645,VALID,0,VALID,92.4557,VALID,0,VALID,23.5646,VALID,96,VALID,0,
2009-05-29, 02:20:04,VALID,998.62,VALID,0,VALID,92.5549,VALID,0,VALID,23.5451,VALID,96,VALID,0,
2009-05-29, 02:21:04,VALID,998.598,VALID,0,VALID,92.677,VALID,0,VALID,23.5664,VALID,96,VALID,0.213672,
2009-05-29, 02:22:04,VALID,998.596,VALID,0,VALID,92.7151,VALID,0,VALID,23.5451,VALID,117,VALID,0.527344,
2009-05-29, 02:23:04,VALID,998.555,VALID,0,VALID,92.6465,VALID,0,VALID,23.6054,VALID,121,VALID,0.621875,
2009-05-29, 02:24:04,VALID,998.539,VALID,0,VALID,92.5778,VALID,0,VALID,23.664,VALID,126,VALID,0.751953,
2009-05-29, 02:25:04,VALID,998.538,VALID,0,VALID,92.3031,VALID,0,VALID,23.6817,VALID,126,VALID,0.923437,
2009-05-29, 02:26:04,VALID,998.533,VALID,0,VALID,92.1277,VALID,0,VALID,23.7402,VALID,126,VALID,0.889453,
2009-05-29, 02:27:04,VALID,998.523,VALID,0,VALID,91.7004,VALID,0,VALID,23.7811,VALID,132,VALID,0.627344,
2009-05-29, 02:28:04,VALID,998.486,VALID,0,VALID,91.4944,VALID,0,VALID,23.8201,VALID,157,VALID,0.952734,
2009-05-29, 02:29:04,VALID,998.468,VALID,0,VALID,91.1892,VALID,0,VALID,23.8378,VALID,166,VALID,0.865234,
2009-05-29, 02:30:04,VALID,998.478,VALID,0,VALID,90.8611,VALID,0,VALID,23.8768,VALID,146,VALID,0.6875,
2009-05-29, 02:31:04,VALID,998.478,VALID,0,VALID,90.6857,VALID,0,VALID,23.8982,VALID,152,VALID,0.861719,
2009-05-29, 02:32:04,VALID,998.467,VALID,0,VALID,90.5636,VALID,0,VALID,23.9177,VALID,155,VALID,0.549609,
2009-05-29, 02:33:04,VALID,998.484,VALID,0,VALID,90.556,VALID,0,VALID,23.9177,VALID,154,VALID,0.596484,
2009-05-29, 02:34:04,VALID,998.469,VALID,0,VALID,90.5254,VALID,0,VALID,23.9177,VALID,154,VALID,0.427734,
2009-05-29, 02:35:04,VALID,998.454,VALID,0,VALID,90.6628,VALID,0,VALID,23.8963,VALID,154,VALID,0.298828,
2009-05-29, 02:36:04,VALID,998.477,VALID,0,VALID,90.7467,VALID,0,VALID,23.8963,VALID,154,VALID,0.273047,
2009-05-29, 02:37:04,VALID,998.473,VALID,0,VALID,90.7162,VALID,0,VALID,23.9177,VALID,154,VALID,0.512109,
2009-05-29, 02:38:04,VALID,998.466,VALID,0,VALID,90.7391,VALID,0,VALID,23.8982,VALID,151,VALID,0.526563,
2009-05-29, 02:39:04,VALID,998.479,VALID,0,VALID,90.7314,VALID,0,VALID,23.8982,VALID,150,VALID,0.438672,
2009-05-29, 02:40:04,VALID,998.491,VALID,0,VALID,90.7085,VALID,0,VALID,23.8786,VALID,150,VALID,0.260938,
2009-05-29, 02:41:04,VALID,998.462,VALID,0,VALID,90.7696,VALID,0,VALID,23.8591,VALID,150,VALID,0.253516,
2009-05-29, 02:42:04,VALID,998.499,VALID,0,VALID,90.8001,VALID,0,VALID,23.8378,VALID,150,VALID,0.348437,
2009-05-29, 02:43:04,VALID,998.459,VALID,0,VALID,90.823,VALID,0,VALID,23.8591,VALID,150,VALID,0.448828,
2009-05-29, 02:44:04,VALID,998.499,VALID,0,VALID,90.7391,VALID,0,VALID,23.8378,VALID,150,VALID,0.426562,
2009-05-29, 02:45:04,VALID,998.494,VALID,0,VALID,90.762,VALID,0,VALID,23.8396,VALID,94,VALID,0.621484,
2009-05-29, 02:46:04,VALID,998.512,VALID,0,VALID,90.8917,VALID,0,VALID,23.8183,VALID,94,VALID,0.524609,
2009-05-29, 02:47:04,VALID,998.478,VALID,0,VALID,90.8077,VALID,0,VALID,23.7988,VALID,94,VALID,0.536328,
2009-05-29, 02:48:04,VALID,998.469,VALID,0,VALID,90.762,VALID,0,VALID,23.7811,VALID,94,VALID,0.504687,
2009-05-29, 02:49:04,VALID,998.475,VALID,0,VALID,90.9832,VALID,0,VALID,23.742,VALID,94,VALID,0.331641,
2009-05-29, 02:50:04,VALID,998.472,VALID,0,VALID,90.968,VALID,0,VALID,23.7225,VALID,94,VALID,0.114063,
2009-05-29, 02:51:04,VALID,998.471,VALID,0,VALID,91.1206,VALID,0,VALID,23.6622,VALID,94,VALID,0.139453,
2009-05-29, 02:52:04,VALID,998.464,VALID,0,VALID,91.3876,VALID,0,VALID,23.6445,VALID,94,VALID,0.273438,
2009-05-29, 02:53:04,VALID,998.432,VALID,0,VALID,91.6851,VALID,0,VALID,23.625,VALID,94,VALID,0.3,
2009-05-29, 02:54:04,VALID,998.43,VALID,0,VALID,92.0437,VALID,0,VALID,23.625,VALID,94,VALID,0.19375,
2009-05-29, 02:55:04,VALID,998.473,VALID,0,VALID,92.1658,VALID,0,VALID,23.6036,VALID,94,VALID,0.166016,
2009-05-29, 02:56:04,VALID,998.463,VALID,0,VALID,92.2803,VALID,0,VALID,23.6445,VALID,94,VALID,0.292188,
2009-05-29, 02:57:04,VALID,998.446,VALID,0,VALID,92.2574,VALID,0,VALID,23.6427,VALID,94,VALID,0.225391,
2009-05-29, 02:58:04,VALID,998.466,VALID,0,VALID,92.265,VALID,0,VALID,23.6427,VALID,94,VALID,0.101953,
2009-05-29, 02:59:04,VALID,998.473,VALID,0,VALID,92.1124,VALID,0,VALID,23.6622,VALID,94,VALID,0,
2009-05-29, 03:00:04,VALID,998.472,VALID,0,VALID,92.0361,VALID,0,VALID,23.6817,VALID,94,VALID,0,
2009-05-29, 03:01:04,VALID,998.479,VALID,0,VALID,92.0209,VALID,0,VALID,23.6817,VALID,94,VALID,0,
2009-05-29, 03:02:04,VALID,998.516,VALID,0,VALID,91.8835,VALID,0,VALID,23.6817,VALID,94,VALID,0,
2009-05-29, 03:03:04,VALID,998.503,VALID,0,VALID,91.8301,VALID,0,VALID,23.6817,VALID,94,VALID,0,
2009-05-29, 03:04:04,VALID,998.516,VALID,0,VALID,91.7691,VALID,0,VALID,23.7012,VALID,94,VALID,0,
2009-05-29, 03:05:04,VALID,998.517,VALID,0,VALID,91.7309,VALID,0,VALID,23.6622,VALID,94,VALID,0,
2009-05-29, 03:06:04,VALID,998.496,VALID,0,VALID,91.6241,VALID,0,VALID,23.6427,VALID,94,VALID,0,
2009-05-29, 03:07:04,VALID,998.503,VALID,0,VALID,91.708,VALID,0,VALID,23.625,VALID,94,VALID,0,
2009-05-29, 03:08:04,VALID,998.491,VALID,0,VALID,91.914,VALID,0,VALID,23.5841,VALID,94,VALID,0,
2009-05-29, 03:09:04,VALID,998.479,VALID,0,VALID,92.1506,VALID,0,VALID,23.5646,VALID,94,VALID,0,
2009-05-29, 03:10:04,VALID,998.487,VALID,0,VALID,92.2879,VALID,0,VALID,23.6054,VALID,94,VALID,0,
2009-05-29, 03:11:04,VALID,998.491,VALID,0,VALID,92.2574,VALID,0,VALID,23.6054,VALID,94,VALID,0.330469,
2009-05-29, 03:12:04,VALID,998.486,VALID,0,VALID,91.9751,VALID,0,VALID,23.5841,VALID,94,VALID,0.149609,
2009-05-29, 03:13:04,VALID,998.487,VALID,0,VALID,91.4486,VALID,0,VALID,23.5451,VALID,94,VALID,0.179297,
2009-05-29, 03:14:04,VALID,998.472,VALID,0,VALID,91.7385,VALID,0,VALID,23.5256,VALID,62,VALID,0.542969,
2009-05-29, 03:15:04,VALID,998.486,VALID,0,VALID,91.708,VALID,0,VALID,23.4671,VALID,62,VALID,0.299219,
2009-05-29, 03:16:04,VALID,998.468,VALID,0,VALID,92.1582,VALID,0,VALID,23.428,VALID,62,VALID,0.0800781,
2009-05-29, 03:17:04,VALID,998.446,VALID,0,VALID,92.12,VALID,0,VALID,23.4103,VALID,62,VALID,0.103516,
2009-05-29, 03:18:04,VALID,998.465,VALID,0,VALID,92.3413,VALID,0,VALID,23.3908,VALID,62,VALID,0,
2009-05-29, 03:19:04,VALID,998.446,VALID,0,VALID,92.3413,VALID,0,VALID,23.3305,VALID,62,VALID,0,
2009-05-29, 03:20:04,VALID,998.427,VALID,0,VALID,92.4328,VALID,0,VALID,23.311,VALID,62,VALID,0.127344,
2009-05-29, 03:21:04,VALID,998.416,VALID,0,VALID,92.7685,VALID,0,VALID,23.3323,VALID,143,VALID,0.740625,
2009-05-29, 03:22:04,VALID,998.386,VALID,0,VALID,92.7914,VALID,0,VALID,23.311,VALID,163,VALID,1.2707,
2009-05-29, 03:23:04,VALID,998.414,VALID,0,VALID,92.4557,VALID,0,VALID,23.389,VALID,170,VALID,1.16562,
2009-05-29, 03:24:04,VALID,998.405,VALID,0,VALID,91.9903,VALID,0,VALID,23.4475,VALID,159,VALID,0.869141,
2009-05-29, 03:25:04,VALID,998.434,VALID,0,VALID,91.6394,VALID,0,VALID,23.5061,VALID,160,VALID,1.00898,
2009-05-29, 03:26:04,VALID,998.479,VALID,0,VALID,91.3952,VALID,0,VALID,23.5646,VALID,160,VALID,0.858203,
2009-05-29, 03:27:04,VALID,998.511,VALID,0,VALID,91.1434,VALID,0,VALID,23.5841,VALID,160,VALID,0.545313,
2009-05-29, 03:28:04,VALID,998.498,VALID,0,VALID,90.8993,VALID,0,VALID,23.625,VALID,160,VALID,0.214844,
2009-05-29, 03:29:04,VALID,998.499,VALID,0,VALID,90.6323,VALID,0,VALID,23.5841,VALID,297,VALID,0.592188,
2009-05-29, 03:30:04,VALID,998.488,VALID,0,VALID,90.8764,VALID,0,VALID,23.4866,VALID,313,VALID,0.345703,
2009-05-29, 03:31:04,VALID,998.493,VALID,0,VALID,91.4334,VALID,0,VALID,23.4493,VALID,313,VALID,0.216406,
2009-05-29, 03:32:04,VALID,998.505,VALID,0,VALID,91.8072,VALID,0,VALID,23.389,VALID,313,VALID,0.105469,
2009-05-29, 03:33:04,VALID,998.507,VALID,0,VALID,91.9751,VALID,0,VALID,23.35,VALID,313,VALID,0.021875,
2009-05-29, 03:34:04,VALID,998.487,VALID,0,VALID,92.4863,VALID,0,VALID,23.35,VALID,308,VALID,0.393359,
2009-05-29, 03:35:04,VALID,998.5,VALID,0,VALID,92.6465,VALID,0,VALID,23.3695,VALID,308,VALID,0.253906,
2009-05-29, 03:36:04,VALID,998.528,VALID,0,VALID,92.5778,VALID,0,VALID,23.4103,VALID,308,VALID,0.0261719,
2009-05-29, 03:37:04,VALID,998.5,VALID,0,VALID,92.5168,VALID,0,VALID,23.35,VALID,308,VALID,0,
2009-05-29, 03:38:04,VALID,998.492,VALID,0,VALID,92.5091,VALID,0,VALID,23.3305,VALID,308,VALID,0.141797,
2009-05-29, 03:39:04,VALID,998.496,VALID,0,VALID,92.4481,VALID,0,VALID,23.3518,VALID,308,VALID,0.126953,
2009-05-29, 03:40:04,VALID,998.483,VALID,0,VALID,92.2726,VALID,0,VALID,23.2932,VALID,308,VALID,0.519922,
2009-05-29, 03:41:04,VALID,998.477,VALID,0,VALID,92.532,VALID,0,VALID,23.2524,VALID,309,VALID,0.559375,
2009-05-29, 03:42:04,VALID,998.484,VALID,0,VALID,92.5931,VALID,0,VALID,23.2347,VALID,313,VALID,0.407422,
2009-05-29, 03:43:04,VALID,998.484,VALID,0,VALID,92.6846,VALID,0,VALID,23.1939,VALID,313,VALID,0.305469,
2009-05-29, 03:44:04,VALID,998.439,VALID,0,VALID,92.9669,VALID,0,VALID,23.1957,VALID,313,VALID,0.183984,
2009-05-29, 03:45:04,VALID,998.458,VALID,0,VALID,93.1119,VALID,0,VALID,23.1957,VALID,313,VALID,0.137109,
2009-05-29, 03:46:04,VALID,998.453,VALID,0,VALID,93.028,VALID,0,VALID,23.1566,VALID,313,VALID,0.204688,
2009-05-29, 03:47:04,VALID,998.481,VALID,0,VALID,93.1271,VALID,0,VALID,23.1371,VALID,313,VALID,0.401172,